Wind_Speed
14 15 17 20 22 25 27 28 30 34 35 35 36 37 38 37 36 35 34 33 33 32 33 33 33 34 35 36 37 37 35 34 33 32 30 28 27 26 25 24 24 24 24 25
9 10 13 15 17 20 22 23 25 30 31 32 34 35 36 36 35 34 33 32 32 32 32 33 34 35 36 37 37 37 37 35 33 32 30 28 27 26 25 23 23 23 23 23
4 7 8 9 11 12 15 17 20 23 26 26 28 28 30 32 32 32 32 32 32 32 33 34 35 36 37 37 37 37 36 34 33 32 30 28 27 25 24 23 23 23 23 23
4 5 6 7 8 8 10 15 17 19 19 18 22 19 25 28 28 29 30 31 32 33 34 35 36 36 36 36 36 36 35 35 34 32 30 29 27 26 25 24 24 24 23 23
6 6 6 7 9 9 11 13 14 15 16 16 18 16 19 25 25 27 28 29 31 32 34 34 34 34 35 35 35 36 36 35 34 33 32 30 29 28 27 27 26 26 25 25
8 8 8 9 10 11 12 12 13 13 12 12 15 14 17 22 21 22 23 25 26 27 28 30 31 32 34 34 35 36 36 35 35 34 33 31 31 30 30 29 28 28 28 27
7 8 9 9 9 11 11 10 10 9 10 11 16 14 17 18 17 18 20 22 23 25 27 29 30 32 34 35 35 35 36 36 35 35 34 34 34 33 32 32 31 30 30 30
4 5 9 9 8 9 10 10 9 10 10 12 16 16 17 16 17 18 19 21 23 25 27 29 31 33 35 36 37 37 37 37 37 36 36 36 36 36 35 35 34 33 32 32
4 6 10 9 9 9 9 9 11 12 13 14 14 19 18 17 19 20 21 23 25 27 29 31 33 35 36 38 39 39 39 39 39 39 38 38 38 37 37 37 36 35 34 34
6 6 8 10 9 9 9 11 12 12 14 14 15 18 23 21 22 24 26 28 30 32 34 35 36 38 39 40 41 42 42 42 41 41 41 40 40 40 39 39 38 37 37 36
7 7 8 11 11 11 13 14 14 15 18 19 19 21 26 26 27 29 31 33 34 36 37 39 40 41 43 43 44 45 45 45 45 45 44 44 44 43 43 42 41 40 39 38
8 9 10 12 14 15 16 17 19 20 21 23 24 28 27 28 30 32 34 36 37 39 40 41 43 44 45 46 47 47 48 49 49 49 49 49 48 48 47 46 45 43 41 40
10 11 11 13 18 20 20 21 22 23 24 26 26 31 32 33 34 36 37 38 39 41 42 43 45 46 47 48 49 50 51 52 53 54 54 54 53 52 52 51 49 47 45 43
12 12 13 14 16 20 23 24 24 25 26 27 29 34 36 37 39 40 41 42 43 44 45 47 48 49 50 52 53 55 56 57 58 58 59 59 58 57 56 55 53 52 50 48
14 15 16 18 20 21 23 24 25 26 28 30 33 36 39 40 42 43 44 45 46 48 49 51 52 54 55 57 59 61 62 63 63 64 64 64 63 62 60 59 57 55 54 51
16 17 18 18 20 22 24 25 27 28 30 33 36 39 40 42 44 45 46 48 50 52 54 56 57 59 61 63 65 67 68 69 69 69 69 69 67 66 65 63 61 59 56 54
17 18 18 20 21 24 26 27 29 31 33 36 38 41 43 44 45 47 50 52 55 57 59 62 64 66 67 69 70 71 72 73 73 72 72 72 71 70 67 65 63 61 58 56
18 19 20 22 25 26 28 29 32 35 36 37 40 42 45 47 49 51 55 58 59 62 64 66 68 70 71 72 73 73 73 73 73 73 72 72 71 69 67 65 63 61 58 55
20 21 23 24 26 31 31 33 35 37 39 40 43 45 48 51 54 56 60 63 65 67 69 70 71 71 70 69 68 68 67 67 66 65 64 63 62 61 60 59 57 56 54 52
22 22 24 26 28 31 34 35 37 40 43 45 48 50 53 56 59 61 64 67 69 70 70 68 66 64 62 60 58 57 56 54 53 52 51 50 49 48 48 47 47 47 47 47
23 24 25 27 30 32 35 37 40 42 46 49 52 55 59 62 65 67 68 69 69 67 63 60 57 54 51 49 47 45 43 42 41 40 38 38 37 37 37 37 38 40 42 43
25 27 28 30 32 36 38 40 42 45 49 53 56 60 63 66 68 68 68 67 64 60 55 51 48 45 43 41 40 38 36 36 35 33 32 31 30 30 30 31 32 34 36 38
26 28 30 32 34 37 41 44 46 50 54 57 61 64 66 68 67 66 65 61 57 52 48 45 42 40 39 39 38 37 35 35 34 32 30 29 28 27 27 27 28 30 31 33
29 31 33 35 38 41 44 47 51 54 58 61 64 66 67 66 65 62 59 54 49 45 42 41 40 40 39 38 38 38 38 37 35 32 30 29 28 27 27 27 28 27 28 29
33 35 37 39 42 44 48 52 55 58 61 64 65 66 65 64 61 57 52 47 44 42 41 41 41 41 41 40 40 39 38 37 35 33 31 30 29 28 27 27 27 26 27 27
35 38 40 43 46 49 51 55 58 61 63 65 65 64 62 60 57 52 47 44 42 42 42 43 43 43 42 42 41 39 37 36 34 33 32 31 29 28 28 26 26 25 26 26
Wind_Direction
266 260 253 249 245 244 246 246 248 250 253 255 257 261 264 267 269 270 272 272 271 270 271 273 276 279 282 286 290 291 294 296 297 297 297 295 295 295 294 294 293 292 293 294
276 264 260 256 252 250 250 251 253 256 256 258 261 264 267 269 270 271 272 271 270 269 270 273 276 279 281 284 288 289 293 295 295 295 295 294 295 295 294 294 294 293 293 295
271 273 271 266 263 260 257 254 257 261 265 267 268 270 271 270 270 271 271 270 270 270 271 273 276 280 282 286 289 290 292 293 294 295 295 296 296 295 295 293 293 293 294 295
290 290 287 284 279 274 274 268 269 271 273 272 272 270 276 275 272 271 270 270 270 272 273 276 279 282 284 286 288 289 290 292 294 294 295 296 296 296 295 294 294 293 294 295
287 292 292 287 281 279 273 281 280 279 278 274 278 273 270 276 274 273 273 273 274 275 277 279 281 283 284 284 286 287 290 292 294 294 295 295 295 295 294 294 293 292 292 293
290 295 290 284 284 283 287 293 297 297 295 285 277 275 268 279 281 279 278 279 280 281 281 282 282 282 282 283 285 287 289 291 293 293 293 293 293 292 292 292 291 291 290 291
308 306 299 292 294 297 298 305 313 308 299 286 288 284 273 286 287 285 284 283 283 282 282 282 282 283 283 283 285 286 288 289 290 290 290 290 290 289 289 289 288 288 289 289
319 300 294 297 292 287 293 292 289 281 283 284 296 292 290 292 292 290 287 285 283 283 283 282 282 283 284 285 285 286 286 287 288 288 288 288 288 288 288 288 287 287 286 287
299 289 302 304 303 301 300 294 284 288 291 295 290 291 295 293 292 289 287 285 284 284 284 283 283 283 284 284 285 286 286 287 287 287 287 287 287 287 287 287 286 286 285 285
293 292 297 304 309 311 305 300 298 297 292 290 291 297 295 296 291 288 287 286 285 284 284 283 283 283 283 284 284 285 285 285 285 286 286 286 286 285 285 286 286 285 285 285
302 301 303 306 308 307 308 306 303 298 296 296 292 286 288 293 290 288 287 286 285 284 284 283 283 283 282 282 282 282 283 283 283 283 283 284 285 285 285 285 284 284 284 284
304 309 309 307 308 307 306 306 305 303 301 301 301 293 297 294 292 290 289 288 287 286 284 283 283 282 282 281 281 282 282 282 282 282 282 283 284 284 284 285 284 283 283 283
316 318 323 320 314 313 312 310 307 305 305 305 304 296 303 300 298 297 295 294 292 290 288 287 286 284 284 283 283 282 282 281 281 281 282 282 282 282 283 283 283 282 282 282
318 320 315 307 299 302 308 311 311 309 307 305 302 298 302 302 301 300 298 297 295 293 291 290 288 287 286 285 284 283 283 281 281 280 281 281 281 280 280 281 280 280 280 281
317 317 315 312 309 309 309 310 310 309 308 305 303 301 303 303 302 301 300 298 297 295 294 292 291 289 287 285 284 283 282 281 280 280 279 279 278 278 279 279 279 278 278 278
319 318 318 315 313 313 313 314 312 310 309 307 306 304 304 303 302 302 301 300 299 297 295 294 291 289 288 286 284 283 282 281 281 280 279 278 277 277 277 277 276 276 275 275
325 324 324 322 318 315 316 316 313 311 310 308 307 307 306 306 305 305 303 301 300 298 296 294 292 290 288 287 285 284 282 282 281 280 279 278 277 277 276 275 275 274 273 272
331 329 327 325 321 319 319 317 314 313 312 310 309 308 308 307 306 305 303 302 301 299 297 295 293 292 290 289 287 286 285 284 283 281 280 279 278 277 275 274 273 271 270 268
333 331 328 327 323 319 321 319 316 314 313 312 311 310 310 309 308 307 305 304 303 302 300 298 296 295 293 292 291 290 289 287 286 284 282 280 278 275 273 271 269 267 264 263
333 332 329 326 322 320 320 319 318 316 315 316 315 314 312 311 310 309 308 307 305 304 303 301 300 299 298 297 296 295 295 293 290 288 285 282 278 275 272 268 264 260 258 256
332 330 328 325 322 320 320 320 319 319 318 317 316 316 315 314 313 312 310 309 308 307 306 305 304 304 304 304 303 302 301 299 296 293 289 285 281 277 272 268 263 258 254 251
331 329 328 327 325 324 323 321 321 320 319 319 319 318 317 316 315 314 312 311 311 310 309 308 307 307 307 307 306 306 304 302 299 297 293 288 284 280 276 271 266 260 255 251
331 330 329 328 326 324 324 324 323 323 323 322 321 320 319 318 317 315 314 314 313 312 311 310 309 309 309 307 305 304 303 301 300 297 294 290 286 282 278 273 269 264 257 250
332 331 330 329 328 328 327 326 326 326 325 324 324 322 321 320 318 317 317 316 315 313 311 310 309 309 308 306 303 302 300 298 297 295 292 288 284 282 278 274 270 264 255 245
333 333 332 331 330 330 330 329 328 328 327 326 325 324 323 321 320 320 319 317 316 314 312 310 309 308 307 305 303 301 298 296 294 292 289 287 285 282 277 273 269 263 252 244
334 334 333 332 332 332 332 330 329 329 328 328 328 327 326 324 323 322 321 319 317 314 312 310 309 307 305 303 302 299 297 295 292 290 287 284 283 280 276 272 268 260 249 242
Height
5871 5873 5873 5874 5875 5876 5878 5880 5881 5881 5882 5884 5884 5884 5884 5884 5885 5884 5884 5884 5883 5882 5881 5880 5878 5876 5873 5871 5868 5866 5863 5860 5858 5855 5853 5851 5848 5846 5843 5840 5838 5836 5833 5831
5870 5870 5870 5870 5871 5872 5874 5876 5876 5876 5876 5878 5878 5878 5878 5877 5877 5877 5877 5876 5876 5875 5874 5873 5871 5869 5866 5864 5861 5858 5856 5853 5851 5849 5846 5844 5841 5839 5836 5834 5831 5829 5827 5825
5868 5868 5867 5868 5868 5870 5870 5872 5872 5871 5871 5872 5872 5873 5871 5870 5870 5870 5870 5869 5869 5868 5866 5865 5863 5861 5858 5856 5853 5851 5848 5846 5844 5841 5839 5836 5834 5832 5830 5827 5825 5823 5821 5819
5867 5866 5866 5866 5866 5867 5869 5867 5867 5867 5868 5870 5868 5870 5866 5863 5863 5863 5862 5862 5861 5860 5859 5857 5855 5853 5850 5848 5845 5843 5841 5839 5836 5834 5831 5829 5827 5825 5823 5820 5818 5816 5814 5812
5865 5865 5865 5865 5864 5864 5864 5863 5863 5863 5863 5863 5863 5864 5864 5858 5857 5856 5855 5855 5854 5852 5851 5849 5847 5845 5842 5840 5837 5835 5833 5830 5828 5826 5824 5822 5820 5818 5815 5813 5811 5809 5806 5804
5864 5863 5862 5862 5861 5861 5861 5860 5860 5859 5860 5861 5858 5859 5858 5853 5852 5850 5849 5848 5847 5845 5843 5841 5839 5837 5834 5832 5829 5827 5824 5822 5820 5818 5816 5814 5812 5810 5808 5806 5804 5801 5799 5797
5863 5862 5860 5860 5860 5860 5859 5859 5860 5860 5860 5859 5854 5853 5852 5848 5847 5845 5844 5842 5840 5838 5837 5834 5832 5830 5826 5824 5822 5819 5817 5814 5812 5810 5808 5806 5804 5802 5800 5798 5796 5794 5791 5789
5863 5864 5860 5858 5857 5857 5856 5856 5858 5857 5857 5855 5851 5848 5846 5844 5842 5840 5838 5836 5834 5832 5830 5827 5825 5822 5819 5816 5814 5811 5809 5806 5804 5802 5799 5797 5795 5793 5791 5789 5787 5784 5782 5780
5862 5862 5858 5856 5855 5854 5854 5853 5853 5852 5851 5850 5849 5844 5842 5839 5837 5835 5833 5831 5828 5826 5823 5820 5817 5814 5811 5808 5805 5802 5800 5797 5794 5792 5789 5787 5785 5783 5781 5779 5777 5775 5773 5771
5859 5859 5858 5855 5853 5852 5852 5850 5849 5848 5847 5846 5846 5843 5839 5834 5832 5829 5827 5824 5821 5818 5815 5812 5809 5806 5802 5799 5796 5793 5790 5787 5784 5781 5779 5777 5774 5772 5770 5768 5766 5764 5762 5760
5857 5857 5857 5854 5852 5851 5849 5848 5846 5845 5843 5841 5840 5841 5833 5829 5826 5822 5819 5816 5813 5810 5806 5802 5799 5795 5791 5788 5785 5781 5778 5775 5772 5769 5767 5764 5762 5760 5758 5756 5754 5752 5751 5749
5855 5855 5854 5852 5850 5848 5846 5844 5842 5841 5838 5835 5833 5833 5826 5822 5818 5815 5811 5807 5804 5800 5796 5792 5788 5784 5780 5776 5772 5768 5765 5762 5759 5756 5753 5751 5748 5746 5744 5743 5741 5739 5738 5737
5853 5853 5851 5851 5849 5845 5842 5839 5837 5834 5832 5829 5827 5824 5818 5814 5810 5806 5802 5797 5793 5789 5784 5780 5775 5771 5767 5762 5758 5755 5751 5747 5744 5741 5738 5735 5733 5731 5730 5728 5727 5725 5724 5723
5851 5850 5849 5848 5845 5842 5838 5835 5831 5829 5826 5823 5820 5814 5809 5805 5800 5795 5791 5786 5781 5776 5771 5766 5762 5757 5752 5747 5743 5738 5734 5731 5727 5724 5721 5718 5716 5714 5713 5712 5711 5710 5709 5709
5849 5847 5845 5842 5839 5836 5833 5830 5827 5823 5820 5816 5812 5806 5800 5795 5790 5784 5779 5773 5768 5763 5757 5751 5746 5740 5735 5730 5725 5720 5716 5711 5708 5704 5701 5699 5697 5695 5694 5694 5693 5694 5693 5693
5846 5844 5841 5839 5835 5832 5828 5825 5821 5817 5813 5808 5803 5797 5792 5785 5779 5773 5766 5760 5754 5747 5741 5735 5729 5723 5717 5711 5706 5700 5695 5690 5686 5683 5680 5677 5675 5674 5673 5673 5674 5675 5675 5676
5842 5840 5837 5834 5830 5827 5823 5820 5815 5810 5805 5800 5794 5788 5781 5774 5767 5760 5753 5746 5739 5732 5724 5717 5710 5703 5696 5690 5683 5678 5672 5667 5663 5659 5656 5653 5652 5651 5651 5651 5652 5654 5656 5657
5839 5836 5833 5830 5826 5822 5820 5813 5808 5802 5797 5791 5784 5777 5770 5762 5755 5748 5738 5730 5723 5714 5706 5697 5688 5680 5673 5666 5659 5653 5647 5642 5638 5634 5631 5629 5627 5627 5627 5628 5630 5632 5635 5638
5835 5832 5829 5825 5821 5815 5812 5806 5799 5793 5787 5781 5774 5766 5758 5749 5741 5734 5722 5713 5703 5694 5684 5675 5666 5657 5649 5641 5634 5628 5623 5617 5613 5610 5607 5605 5604 5604 5604 5605 5607 5610 5614 5617
5832 5828 5824 5819 5815 5811 5805 5797 5790 5784 5776 5769 5761 5753 5744 5735 5726 5718 5706 5694 5683 5673 5662 5652 5643 5634 5627 5619 5612 5607 5602 5597 5593 5589 5587 5585 5583 5583 5583 5585 5587 5590 5594 5598
5828 5824 5820 5814 5809 5803 5797 5789 5783 5776 5769 5759 5749 5739 5729 5719 5708 5697 5686 5674 5662 5651 5641 5631 5623 5616 5609 5602 5596 5591 5586 5581 5577 5574 5571 5569 5568 5568 5568 5569 5571 5573 5576 5580
5824 5819 5814 5809 5802 5797 5789 5781 5774 5767 5756 5746 5736 5725 5714 5702 5690 5677 5665 5653 5642 5632 5623 5614 5607 5601 5595 5589 5583 5579 5574 5570 5566 5562 5560 5558 5557 5556 5556 5557 5558 5559 5562 5565
5819 5814 5808 5803 5798 5789 5780 5772 5763 5754 5744 5733 5722 5710 5697 5685 5673 5660 5648 5637 5626 5617 5609 5602 5595 5589 5584 5578 5572 5568 5564 5559 5556 5553 5550 5548 5547 5546 5546 5546 5547 5548 5550 5552
5813 5808 5802 5795 5788 5780 5772 5762 5752 5742 5731 5719 5707 5694 5681 5668 5656 5644 5633 5622 5613 5605 5597 5590 5584 5578 5573 5567 5561 5557 5552 5549 5545 5543 5541 5539 5537 5536 5536 5536 5536 5537 5538 5541
5807 5801 5794 5787 5780 5772 5762 5751 5741 5730 5719 5706 5694 5680 5666 5652 5641 5629 5619 5609 5601 5594 5586 5579 5573 5567 5561 5555 5550 5545 5540 5536 5534 5532 5530 5528 5527 5526 5526 5526 5526 5527 5528 5531
5801 5794 5787 5780 5771 5762 5752 5742 5731 5719 5707 5694 5680 5667 5652 5638 5626 5616 5607 5598 5590 5582 5575 5567 5560 5554 5548 5542 5537 5532 5528 5524 5521 5520 5518 5517 5516 5515 5515 5515 5515 5516 5519 5521